�������l�o���
Date,Time,MP-1(��Sv/h),MP-2(��Sv/h),MP-3(��Sv/h),MP-4(��Sv/h),MP-5(��Sv/h),MP-6(��Sv/h),MP-7(��Sv/h),MP-8(��Sv/h),����,����(m/s),���J
2021/03/02,00:00,0.663,0.969,0.609,1.211,0.860,0.382,0.670,0.628,��,12.7,��
2021/03/02,00:10,0.663,0.970,0.610,1.209,0.861,0.381,0.673,0.627,��쐼,12.7,��
2021/03/02,00:20,0.663,0.967,0.608,1.211,0.863,0.383,0.672,0.629,��쐼,12.8,��
2021/03/02,00:30,0.663,0.969,0.610,1.210,0.862,0.383,0.673,0.628,��,12.2,��
2021/03/02,00:40,0.664,0.969,0.610,1.211,0.861,0.382,0.673,0.628,��,13.0,��
2021/03/02,00:50,0.663,0.969,0.610,1.212,0.861,0.384,0.673,0.627,��,13.3,��
2021/03/02,01:00,0.664,0.967,0.610,1.210,0.860,0.383,0.672,0.628,��,13.6,��
2021/03/02,01:10,0.664,0.968,0.609,1.212,0.861,0.383,0.672,0.628,��,12.7,��
2021/03/02,01:20,0.665,0.967,0.609,1.211,0.862,0.384,0.674,0.628,��,11.6,��
2021/03/02,01:30,0.665,0.968,0.611,1.212,0.860,0.383,0.671,0.628,��,10.5,��
2021/03/02,01:40,0.665,0.969,0.611,1.212,0.863,0.384,0.672,0.627,��,10.9,��
2021/03/02,01:50,0.665,0.970,0.610,1.212,0.861,0.383,0.673,0.629,��,9.9,��
2021/03/02,02:00,0.666,0.969,0.611,1.212,0.863,0.384,0.673,0.629,��,9.9,��
2021/03/02,02:10,0.665,0.970,0.611,1.211,0.862,0.385,0.672,0.629,��,10.0,��
2021/03/02,02:20,0.665,0.971,0.610,1.213,0.859,0.384,0.672,0.629,��,11.9,��
2021/03/02,02:30,0.666,0.970,0.611,1.213,0.861,0.382,0.670,0.629,��,10.5,��
2021/03/02,02:40,0.664,0.969,0.612,1.211,0.859,0.385,0.672,0.630,��,12.4,��
2021/03/02,02:50,0.665,0.970,0.611,1.210,0.862,0.383,0.672,0.630,��,10.8,��
2021/03/02,03:00,0.666,0.969,0.611,1.211,0.861,0.384,0.672,0.629,��,11.8,��
2021/03/02,03:10,0.664,0.968,0.612,1.211,0.860,0.384,0.670,0.629,��,11.3,��
2021/03/02,03:20,0.664,0.970,0.610,1.213,0.861,0.385,0.672,0.629,��,10.7,��
2021/03/02,03:30,0.666,0.968,0.611,1.212,0.861,0.385,0.672,0.629,��,14.1,��
2021/03/02,03:40,0.666,0.969,0.611,1.213,0.862,0.384,0.672,0.630,��,14.1,�L
2021/03/02,03:50,0.665,0.969,0.610,1.211,0.859,0.383,0.671,0.628,��,12.1,��
2021/03/02,04:00,0.665,0.970,0.612,1.214,0.862,0.384,0.671,0.628,��,9.9,��
2021/03/02,04:10,0.664,0.968,0.611,1.212,0.861,0.384,0.671,0.629,��,9.8,��
2021/03/02,04:20,0.665,0.965,0.611,1.212,0.858,0.385,0.672,0.630,��,11.3,��
2021/03/02,04:30,0.665,0.971,0.610,1.214,0.861,0.384,0.671,0.629,��,10.8,��
2021/03/02,04:40,0.664,0.970,0.611,1.210,0.860,0.383,0.671,0.630,��,8.8,��
2021/03/02,04:50,0.666,0.970,0.610,1.212,0.860,0.385,0.674,0.629,��,11.6,��
2021/03/02,05:00,0.664,0.966,0.610,1.213,0.862,0.384,0.673,0.630,��,9.7,��
2021/03/02,05:10,0.665,0.970,0.609,1.212,0.860,0.384,0.672,0.629,��,11.6,��
2021/03/02,05:20,0.667,0.969,0.612,1.211,0.860,0.383,0.672,0.630,��,10.0,��
2021/03/02,05:30,0.665,0.967,0.610,1.213,0.859,0.384,0.674,0.629,��,9.6,��
2021/03/02,05:40,0.666,0.968,0.611,1.211,0.859,0.384,0.671,0.629,��,10.3,��
2021/03/02,05:50,0.667,0.969,0.609,1.216,0.860,0.383,0.673,0.630,��,9.5,��
2021/03/02,06:00,0.664,0.969,0.611,1.214,0.859,0.385,0.673,0.630,��,8.9,��
2021/03/02,06:10,0.664,0.970,0.613,1.210,0.859,0.383,0.673,0.629,��,9.0,�L
2021/03/02,06:20,0.663,0.971,0.611,1.212,0.859,0.384,0.672,0.630,��쓌,10.2,�L
2021/03/02,06:30,0.664,0.969,0.611,1.213,0.859,0.384,0.671,0.630,��,10.9,�L
2021/03/02,06:40,0.665,0.970,0.611,1.209,0.860,0.383,0.673,0.630,��,9.9,�L
2021/03/02,06:50,0.666,0.970,0.613,1.211,0.859,0.384,0.673,0.628,��,12.4,��
2021/03/02,07:00,0.666,0.969,0.609,1.212,0.859,0.383,0.674,0.629,��쐼,11.3,�L
2021/03/02,07:10,0.666,0.970,0.611,1.214,0.860,0.384,0.673,0.629,��,9.8,�L
2021/03/02,07:20,0.665,0.971,0.611,1.214,0.859,0.384,0.674,0.630,��,12.7,�L
2021/03/02,07:30,0.664,0.968,0.612,1.212,0.860,0.383,0.673,0.629,��,11.8,�L
2021/03/02,07:40,0.667,0.968,0.611,1.214,0.860,0.382,0.673,0.630,��쐼,9.2,�L
2021/03/02,07:50,0.664,0.967,0.612,1.214,0.859,0.384,0.673,0.628,��,9.1,�L
2021/03/02,08:00,0.664,0.964,0.612,1.214,0.858,0.382,0.671,0.627,��,8.8,�L
2021/03/02,08:10,0.664,0.966,0.610,1.212,0.857,0.384,0.671,0.629,��,8.4,�L
2021/03/02,08:20,0.663,0.965,0.613,1.212,0.856,0.383,0.671,0.630,��,9.0,��
2021/03/02,08:30,0.661,0.965,0.611,1.212,0.860,0.383,0.672,0.628,��,8.9,��
2021/03/02,08:40,0.663,0.964,0.610,1.210,0.858,0.383,0.673,0.629,��,9.7,��
2021/03/02,08:50,0.664,0.964,0.612,1.211,0.857,0.382,0.673,0.630,��,10.2,��
2021/03/02,09:00,0.663,0.962,0.612,1.211,0.858,0.382,0.673,0.628,��,10.5,��
2021/03/02,09:10,0.666,0.962,0.612,1.212,0.857,0.383,0.673,0.628,��,10.8,��
2021/03/02,09:20,0.665,0.964,0.611,1.212,0.857,0.384,0.672,0.629,��,9.9,��
2021/03/02,09:30,0.664,0.964,0.611,1.216,0.858,0.383,0.672,0.630,��,8.9,��
2021/03/02,09:40,0.663,0.964,0.612,1.214,0.858,0.383,0.672,0.629,��,10.2,��
2021/03/02,09:50,0.664,0.963,0.612,1.214,0.858,0.383,0.673,0.629,��,10.0,��
2021/03/02,10:00,0.661,0.964,0.612,1.210,0.858,0.383,0.673,0.628,��,12.4,��
2021/03/02,10:10,0.664,0.966,0.612,1.213,0.856,0.383,0.674,0.627,��,10.0,��
2021/03/02,10:20,0.666,0.962,0.609,1.214,0.858,0.384,0.674,0.627,��,10.3,��
2021/03/02,10:30,0.662,0.961,0.611,1.212,0.857,0.382,0.673,0.627,��,12.1,��
2021/03/02,10:40,0.663,0.964,0.610,1.213,0.857,0.383,0.674,0.628,��쓌,11.6,��
2021/03/02,10:50,0.662,0.963,0.610,1.213,0.857,0.383,0.673,0.627,��,10.7,�L
2021/03/02,11:00,0.664,0.964,0.611,1.212,0.857,0.382,0.674,0.628,��쓌,14.4,�L
2021/03/02,11:10,0.663,0.963,0.608,1.212,0.860,0.382,0.674,0.625,��,10.5,�L
2021/03/02,11:20,0.663,0.964,0.610,1.212,0.859,0.382,0.674,0.626,��,11.3,�L
2021/03/02,11:30,0.663,0.964,0.610,1.213,0.859,0.383,0.674,0.629,��,10.9,�L
2021/03/02,11:40,0.662,0.964,0.611,1.214,0.857,0.382,0.674,0.627,��,12.2,�L
2021/03/02,11:50,0.662,0.963,0.610,1.213,0.856,0.382,0.672,0.626,��,11.9,�L
2021/03/02,12:00,0.663,0.966,0.608,1.213,0.858,0.383,0.675,0.627,��,13.1,�L
2021/03/02,12:10,0.663,0.966,0.613,1.214,0.857,0.384,0.675,0.627,��,10.6,�L
2021/03/02,12:20,0.664,0.967,0.612,1.213,0.857,0.385,0.674,0.628,��,11.0,�L
2021/03/02,12:30,0.663,0.965,0.615,1.213,0.859,0.385,0.674,0.628,��,11.3,��
2021/03/02,12:40,0.663,0.967,0.612,1.214,0.859,0.385,0.674,0.626,��,10.5,�L
2021/03/02,12:50,0.663,0.967,0.610,1.214,0.857,0.385,0.673,0.629,��,9.7,�L
2021/03/02,13:00,0.662,0.966,0.612,1.213,0.857,0.384,0.674,0.629,��,10.3,��
2021/03/02,13:10,0.663,0.965,0.612,1.212,0.858,0.383,0.673,0.627,��,10.9,�L
2021/03/02,13:20,0.662,0.966,0.611,1.211,0.858,0.383,0.673,0.629,��,11.7,�L
2021/03/02,13:30,0.664,0.965,0.610,1.215,0.858,0.383,0.675,0.629,��,11.8,��
2021/03/02,13:40,0.662,0.965,0.610,1.215,0.858,0.384,0.675,0.628,��,9.7,��
2021/03/02,13:50,0.664,0.964,0.612,1.212,0.859,0.382,0.675,0.627,��,10.8,��
2021/03/02,14:00,0.662,0.964,0.610,1.214,0.859,0.384,0.675,0.626,��,9.4,��
2021/03/02,14:10,0.662,0.966,0.608,1.211,0.859,0.383,0.674,0.626,��,10.3,�L
2021/03/02,14:20,0.658,0.957,0.606,1.209,0.851,0.382,0.673,0.624,���쐼,6.3,�L
2021/03/02,14:30,0.647,0.933,0.595,1.194,0.830,0.379,0.664,0.619,��,6.4,�L
2021/03/02,14:40,0.645,0.932,0.595,1.191,0.833,0.379,0.663,0.619,��,7.7,�L
2021/03/02,14:50,0.644,0.929,0.597,1.184,0.829,0.379,0.662,0.616,��,7.0,�L
2021/03/02,15:00,0.645,0.927,0.596,1.185,0.830,0.378,0.662,0.616,��,8.0,�L
2021/03/02,15:10,0.646,0.930,0.595,1.185,0.831,0.379,0.664,0.617,���k��,9.7,�L
2021/03/02,15:20,0.647,0.929,0.596,1.185,0.828,0.380,0.662,0.616,���k��,7.2,�L
2021/03/02,15:30,0.646,0.930,0.596,1.188,0.828,0.380,0.661,0.620,�k��,6.8,�L
2021/03/02,15:40,0.644,0.927,0.596,1.184,0.829,0.380,0.660,0.617,���k��,5.6,�L
2021/03/02,15:50,0.642,0.923,0.593,1.182,0.826,0.380,0.659,0.617,���k��,7.0,�L
2021/03/02,16:00,0.641,0.918,0.594,1.176,0.823,0.377,0.659,0.617,�k��,9.2,�L
2021/03/02,16:10,0.638,0.914,0.593,1.173,0.820,0.377,0.657,0.615,���k��,10.6,�L
2021/03/02,16:20,0.635,0.913,0.594,1.171,0.818,0.375,0.658,0.613,���k��,11.1,�L
2021/03/02,16:30,0.636,0.913,0.594,1.167,0.815,0.377,0.658,0.615,�k��,10.5,�L
2021/03/02,16:40,0.633,0.910,0.592,1.163,0.811,0.376,0.656,0.615,���k��,12.1,�L
2021/03/02,16:50,0.633,0.909,0.590,1.156,0.809,0.376,0.658,0.614,���k��,10.3,�L
2021/03/02,17:00,0.632,0.909,0.589,1.156,0.811,0.376,0.658,0.615,���k��,10.2,�L
2021/03/02,17:10,0.632,0.911,0.588,1.158,0.809,0.375,0.658,0.613,���k��,10.9,�L
2021/03/02,17:20,0.632,0.907,0.589,1.153,0.805,0.375,0.657,0.613,���k��,12.5,�L
2021/03/02,17:30,0.631,0.907,0.586,1.151,0.806,0.375,0.655,0.613,�k��,11.6,�L
2021/03/02,17:40,0.628,0.904,0.587,1.149,0.804,0.372,0.655,0.613,�k��,9.4,�L
2021/03/02,17:50,0.628,0.902,0.585,1.147,0.801,0.373,0.652,0.612,�k��,12.0,�L
2021/03/02,18:00,0.625,0.897,0.586,1.141,0.798,0.372,0.651,0.612,�k��,8.0,�L
2021/03/02,18:10,0.625,0.896,0.584,1.135,0.795,0.371,0.651,0.611,�k��,8.5,�L
2021/03/02,18:20,0.625,0.896,0.584,1.134,0.795,0.370,0.651,0.609,�k��,7.0,�L
2021/03/02,18:30,0.626,0.896,0.583,1.134,0.794,0.369,0.649,0.610,�k�k��,8.8,�L
2021/03/02,18:40,0.624,0.897,0.583,1.129,0.791,0.372,0.650,0.609,�k�k��,7.1,�L
2021/03/02,18:50,0.623,0.895,0.582,1.131,0.791,0.371,0.648,0.610,�k�k��,6.8,�L
2021/03/02,19:00,0.624,0.894,0.584,1.132,0.793,0.372,0.648,0.609,�k�k��,10.8,�L
2021/03/02,19:10,0.623,0.895,0.584,1.130,0.791,0.374,0.650,0.610,�k�k��,8.8,�L
2021/03/02,19:20,0.625,0.896,0.585,1.132,0.794,0.373,0.650,0.611,�k�k��,9.9,�L
2021/03/02,19:30,0.626,0.900,0.585,1.137,0.793,0.373,0.653,0.611,�k��,10.8,�L
2021/03/02,19:40,0.627,0.900,0.587,1.133,0.796,0.374,0.651,0.612,�k�k��,9.1,�L
2021/03/02,19:50,0.628,0.900,0.586,1.134,0.793,0.374,0.651,0.611,�k��,8.8,�L
2021/03/02,20:00,0.628,0.900,0.587,1.134,0.793,0.375,0.652,0.611,�k��,9.9,�L
2021/03/02,20:10,0.629,0.901,0.585,1.134,0.792,0.374,0.653,0.611,�k��,11.0,�L
2021/03/02,20:20,0.629,0.902,0.588,1.134,0.792,0.375,0.652,0.611,�k��,10.5,�L
2021/03/02,20:30,0.630,0.904,0.588,1.132,0.792,0.377,0.652,0.612,�k�k��,6.8,�L
2021/03/02,20:40,0.631,0.905,0.586,1.134,0.795,0.375,0.654,0.611,�k��,8.5,�L
2021/03/02,20:50,0.629,0.905,0.588,1.137,0.797,0.376,0.653,0.611,�k��,11.6,�L
2021/03/02,21:00,0.631,0.905,0.585,1.135,0.798,0.375,0.653,0.611,�k�k��,9.9,�L
2021/03/02,21:10,0.630,0.906,0.587,1.137,0.798,0.375,0.653,0.611,�k��,9.6,�L
2021/03/02,21:20,0.629,0.905,0.584,1.137,0.797,0.373,0.653,0.612,�k�k��,8.6,�L
2021/03/02,21:30,0.628,0.904,0.583,1.135,0.798,0.372,0.653,0.611,�k��,8.2,��
2021/03/02,21:40,0.628,0.904,0.581,1.136,0.799,0.372,0.652,0.612,�k��,9.9,��
2021/03/02,21:50,0.627,0.906,0.582,1.136,0.797,0.371,0.652,0.611,�k�k��,11.1,��
2021/03/02,22:00,0.630,0.905,0.580,1.135,0.797,0.370,0.652,0.612,�k�k��,10.2,��
2021/03/02,22:10,0.628,0.905,0.581,1.135,0.798,0.369,0.654,0.610,�k�k��,11.1,��
2021/03/02,22:20,0.627,0.906,0.581,1.138,0.799,0.369,0.651,0.612,�k��,10.8,��
2021/03/02,22:30,0.627,0.906,0.583,1.138,0.799,0.369,0.653,0.611,�k�k��,12.2,��
2021/03/02,22:40,0.628,0.906,0.581,1.138,0.799,0.368,0.651,0.612,�k�k��,9.3,��
2021/03/02,22:50,0.629,0.908,0.579,1.138,0.797,0.367,0.653,0.613,�k�k��,10.5,��
2021/03/02,23:00,0.628,0.906,0.582,1.140,0.798,0.367,0.654,0.611,�k�k��,12.4,��
2021/03/02,23:10,0.628,0.907,0.582,1.140,0.800,0.368,0.653,0.611,�k�k��,10.2,��
2021/03/02,23:20,0.628,0.908,0.580,1.138,0.800,0.368,0.653,0.611,�k�k��,12.8,��
2021/03/02,23:30,0.627,0.908,0.582,1.139,0.801,0.369,0.653,0.611,�k�k��,13.0,��
2021/03/02,23:40,0.626,0.910,0.582,1.142,0.799,0.368,0.651,0.613,�k��,10.9,��
2021/03/02,23:50,0.627,0.907,0.583,1.141,0.799,0.369,0.652,0.613,�k�k��,11.7,��
